Wind_Speed
1 2 3 4 5 5 8 5 14 10 4 5 7 6 5 7 12 16 16 13 9 11 11 11 13 14 14 13 11 11 13 14 15 16 16 16 15 12 11 11 11 10 9 7 7 6 5 4 5
1 1 5 3 2 7 9 11 4 5 5 4 6 4 5 4 6 8 10 6 10 9 10 11 13 13 14 12 10 12 12 13 15 15 15 14 13 11 9 10 10 9 8 7 6 6 5 5 4
1 2 6 2 6 15 13 8 8 6 7 6 3 3 4 2 3 5 3 9 5 6 10 12 14 13 13 12 11 13 12 14 16 15 14 12 12 11 9 9 10 9 9 10 11 10 8 6 2
2 5 5 2 2 14 13 8 7 9 7 7 2 2 3 2 3 6 7 9 7 6 9 13 15 13 13 11 12 12 13 14 15 15 14 12 11 10 10 10 10 11 12 12 14 13 14 10 5
6 7 5 5 9 13 8 7 4 6 4 2 1 2 3 1 2 5 8 5 7 6 8 13 14 13 12 11 12 13 13 14 14 15 14 13 11 11 13 13 13 13 14 14 15 16 20 20 16
9 5 6 21 18 10 4 4 3 1 2 3 4 3 4 3 3 4 2 3 5 6 10 13 13 13 12 12 13 13 13 14 14 15 14 13 13 16 16 15 14 16 17 18 19 20 22 23 21
10 4 3 8 12 12 6 10 6 4 3 5 5 4 5 5 4 4 2 2 5 6 11 12 14 13 12 13 12 12 13 13 14 15 15 17 17 16 15 16 17 18 18 19 20 21 21 22 24
11 7 8 20 9 2 3 4 8 5 4 6 6 6 6 6 7 4 2 2 5 8 11 12 13 13 12 13 13 13 14 14 16 16 17 16 15 15 15 15 16 15 15 18 18 20 19 19 22
15 15 7 3 6 7 13 6 8 8 4 5 6 5 7 6 8 5 2 1 4 9 10 12 14 13 13 13 14 17 17 17 18 17 15 13 14 13 15 15 16 15 15 14 18 18 17 15 16
15 10 7 2 9 5 7 4 8 6 1 6 7 5 8 7 8 6 2 2 7 11 11 12 13 14 14 15 17 19 20 21 17 14 13 12 13 12 14 14 15 12 11 11 17 16 15 13 12
16 12 9 9 6 7 4 9 10 2 0 9 7 6 7 8 7 7 5 2 9 12 12 13 14 15 15 16 19 20 21 21 13 12 12 11 13 13 13 11 11 7 10 10 19 18 14 12 12
14 11 7 13 6 4 3 7 8 5 4 7 7 8 9 9 9 8 6 4 9 11 13 14 15 15 15 16 18 16 20 18 15 12 10 10 11 11 11 10 10 10 22 16 16 16 15 12 11
12 9 11 6 11 8 4 8 12 9 6 5 7 8 9 9 10 8 7 4 12 13 13 15 16 16 16 16 16 15 16 15 12 11 10 7 15 13 10 13 11 2 18 18 16 18 13 12 12
17 17 11 1 3 5 3 6 12 9 4 1 4 8 10 11 11 10 7 6 12 14 13 14 15 16 17 18 16 13 10 11 11 10 8 8 16 9 9 13 14 16 18 17 16 14 13 13 14
23 22 18 16 11 9 8 13 25 7 5 1 3 10 12 13 12 13 12 10 14 15 14 15 15 16 18 16 15 12 10 8 7 8 8 9 9 9 11 10 12 13 15 15 14 13 14 17 15
26 26 21 18 20 15 17 19 19 15 13 9 3 7 9 11 14 15 13 13 16 16 16 16 16 16 16 15 14 12 10 8 6 6 7 8 8 11 10 10 11 14 17 16 11 13 16 17 20
25 25 23 22 25 21 17 26 14 9 14 13 9 6 3 11 13 14 13 16 18 19 17 17 17 16 16 15 13 12 10 8 5 5 6 8 7 10 9 11 13 13 15 12 13 13 14 17 21
21 23 21 22 24 21 20 25 17 9 15 12 7 10 3 6 13 13 15 17 20 20 19 19 17 17 16 14 13 12 10 7 5 5 6 7 7 6 7 10 11 10 14 14 13 11 12 15 18
25 26 19 20 23 21 16 18 26 18 12 16 10 6 9 8 9 12 16 23 23 22 20 19 18 17 16 16 14 12 10 8 7 6 7 4 3 3 6 8 10 10 12 11 12 10 13 14 12
31 28 19 17 15 14 25 26 17 19 13 17 11 6 7 4 5 5 9 18 22 23 21 20 19 19 18 17 14 11 11 10 9 7 6 5 3 1 4 4 5 5 8 10 10 11 13 13 13
31 29 20 26 17 23 34 34 30 25 18 18 12 10 5 4 6 8 7 15 21 25 22 21 20 21 20 19 15 13 12 12 11 9 7 6 3 0 2 2 3 3 6 7 7 8 11 13 13
31 26 25 31 23 32 23 31 33 24 17 16 9 14 7 3 6 8 8 13 20 25 24 22 22 22 22 19 17 16 16 13 10 10 10 6 4 2 0 1 2 3 4 3 5 5 5 7 10
23 33 32 33 33 30 37 33 21 19 14 13 10 9 7 3 6 7 11 13 19 26 24 22 22 23 22 20 19 19 16 13 12 12 8 8 7 4 1 1 2 1 2 4 4 4 3 4 7
24 34 38 43 38 38 31 27 25 16 16 14 20 20 12 3 3 12 14 16 20 25 23 22 20 22 22 22 21 18 15 14 13 12 10 9 7 4 2 2 2 2 1 4 4 5 6 5 5
34 35 39 51 53 49 34 30 31 19 18 16 19 13 10 5 4 13 16 18 24 23 20 18 17 17 20 23 19 16 14 13 11 10 9 8 6 3 3 2 3 2 4 3 4 4 7 8 6
38 34 35 45 47 40 44 45 30 28 26 29 26 24 12 18 11 15 13 19 24 23 19 16 15 16 18 18 17 14 12 12 9 8 7 7 7 6 4 4 4 5 6 6 5 5 5 9 8
40 45 36 36 42 48 48 42 42 28 32 24 22 28 18 20 15 12 12 15 23 23 19 15 16 16 18 18 18 14 12 11 10 9 8 8 9 9 10 7 8 8 6 8 7 6 6 8 9
47 35 39 39 40 43 39 33 29 34 38 32 32 20 22 24 18 11 14 14 21 23 21 17 17 18 20 20 18 16 15 11 10 10 11 12 12 12 13 13 10 10 8 6 8 8 8 10 10
48 47 41 37 39 35 29 23 5 11 18 29 33 31 28 26 25 13 12 16 17 22 23 21 18 18 17 16 16 15 13 14 12 12 13 15 15 15 13 16 13 9 8 9 8 10 11 11 11
42 48 44 44 37 36 30 23 28 12 22 21 17 28 37 31 34 24 13 17 19 21 21 24 22 19 19 20 18 16 16 12 10 9 9 7 8 10 12 13 13 11 10 11 13 14 11 11 12
Wind_Direction
138 132 130 112 127 162 158 151 102 100 44 52 59 96 70 56 77 123 134 112 108 116 115 119 126 127 127 133 127 115 111 114 120 118 115 107 105 101 99 92 82 77 74 72 68 63 58 54 62
142 272 183 158 166 193 134 104 128 118 90 61 62 83 73 38 96 111 158 80 114 99 121 124 124 124 127 130 120 112 107 114 118 119 112 107 103 98 92 80 74 69 69 67 62 62 50 30 40
42 160 165 109 306 165 116 109 50 44 77 86 67 56 42 47 136 121 115 128 94 108 122 125 121 124 127 121 117 110 112 112 114 111 107 103 99 92 82 75 73 74 73 71 68 66 53 20 3
77 139 143 129 94 95 92 86 61 78 74 85 83 39 19 24 136 123 115 133 122 112 121 123 122 126 123 121 118 113 113 109 107 108 104 99 91 89 88 77 71 77 75 66 62 51 33 5 326
128 133 155 56 113 101 111 71 40 106 90 59 80 317 332 305 170 150 104 109 107 114 126 124 123 124 123 122 118 115 113 107 105 107 107 104 99 92 82 84 86 77 70 62 58 52 44 43 55
143 152 142 327 137 101 118 149 191 88 121 260 264 298 286 249 171 132 104 113 114 126 134 127 123 125 128 124 123 118 117 112 109 108 108 103 98 93 96 95 83 69 63 59 58 52 51 58 64
176 219 61 68 76 94 30 126 270 79 263 251 261 251 250 234 186 156 155 148 135 138 137 133 128 130 131 129 128 124 120 112 108 107 108 108 107 101 98 91 80 75 70 63 60 57 55 60 70
191 190 204 320 106 121 239 232 305 340 255 266 266 247 220 223 199 195 177 167 154 144 142 137 133 137 136 129 128 122 116 116 111 110 112 114 105 101 91 88 84 82 82 77 60 53 57 57 64
200 207 207 311 113 91 199 197 329 259 283 284 270 262 231 224 210 213 204 167 157 151 147 140 140 140 137 133 132 118 119 113 108 108 109 106 99 95 92 84 77 70 64 71 67 58 49 55 62
206 204 206 223 236 155 168 262 263 242 187 285 258 242 242 223 228 236 207 238 176 159 151 144 144 142 137 137 128 123 119 113 114 114 111 103 94 82 71 67 63 58 82 66 74 72 61 45 51
216 207 213 195 207 241 149 336 282 234 348 255 256 224 236 241 235 240 222 245 192 167 157 148 147 145 141 141 131 130 120 118 115 119 104 106 95 85 73 60 57 30 69 69 59 67 63 47 44
221 219 148 184 218 168 218 262 325 275 132 219 222 241 229 238 231 219 230 228 176 179 161 153 152 149 145 144 134 136 123 124 124 115 107 97 78 76 74 61 47 33 38 61 55 58 51 48 51
219 166 177 161 215 232 126 334 258 293 105 181 219 231 249 243 234 241 245 232 183 184 168 159 155 150 146 139 133 130 125 125 118 114 114 145 110 71 65 66 50 349 35 44 45 45 44 35 36
211 183 171 125 288 145 155 257 233 248 53 207 247 228 244 239 231 227 230 228 192 184 177 166 159 159 153 144 141 132 127 121 126 119 104 58 62 53 60 63 56 36 24 29 36 43 35 29 19
215 211 210 221 238 211 213 243 235 246 226 247 211 243 243 240 240 220 215 211 194 184 184 173 166 164 156 148 140 134 134 120 110 103 91 74 80 75 63 50 53 37 33 24 32 45 30 23 13
216 212 213 222 220 215 237 229 232 267 279 286 216 243 241 235 237 230 218 204 195 188 187 180 171 170 163 158 154 152 146 136 126 104 96 90 75 71 60 39 8 34 32 32 44 34 24 23 32
230 227 213 204 205 232 239 251 280 282 277 281 276 227 243 230 228 232 223 200 194 193 185 180 174 174 169 161 158 154 148 137 128 113 105 102 87 65 48 25 20 33 35 48 45 38 33 27 40
239 237 225 204 208 206 241 252 248 264 283 259 272 269 128 210 222 214 216 216 199 191 190 181 181 180 177 170 166 154 149 147 140 126 119 109 90 65 34 24 21 30 36 42 51 44 41 34 39
232 230 227 207 183 226 244 268 242 242 276 297 244 313 264 149 204 196 192 201 199 193 191 187 188 190 183 179 176 172 164 165 161 153 139 128 107 56 27 26 19 22 35 50 50 34 27 32 45
228 230 218 198 168 221 247 254 248 267 276 287 235 260 255 147 176 204 199 193 189 193 193 192 189 195 190 188 185 180 173 175 168 168 166 174 182 41 42 32 35 21 29 41 45 34 31 29 35
223 227 219 181 172 238 236 243 240 234 233 240 244 234 356 74 218 172 208 205 198 193 196 198 196 202 196 194 186 183 185 188 183 177 197 211 205 286 61 21 34 35 39 33 32 29 32 42 44
228 217 215 182 189 237 243 258 238 244 228 247 257 289 335 314 234 182 179 218 202 196 199 203 201 202 203 197 187 191 195 191 179 191 206 209 210 231 275 4 8 12 16 354 36 39 47 47 57
223 210 209 199 196 206 230 247 238 262 229 264 260 290 306 58 238 227 190 202 212 201 198 204 207 208 207 200 198 199 199 191 194 206 206 209 215 221 251 229 197 284 322 340 1 13 5 32 52
219 213 202 195 199 216 204 238 231 238 266 269 279 261 313 308 345 225 210 194 203 204 206 207 208 212 210 208 206 202 199 199 203 209 209 216 226 243 264 337 249 207 300 328 318 335 352 350 28
213 210 207 198 204 213 199 218 217 211 246 264 283 283 270 286 325 203 205 200 196 201 214 217 216 215 213 211 205 206 206 213 217 213 210 216 236 232 237 314 345 250 236 296 300 304 334 340 353
217 223 225 217 222 228 213 212 211 176 200 215 260 285 282 287 264 177 199 197 197 201 212 220 212 211 211 211 211 211 213 210 206 200 198 207 223 251 246 262 270 261 231 235 275 288 305 328 335
212 221 219 222 219 221 226 225 230 207 199 207 193 244 254 265 254 192 187 196 202 203 209 220 221 208 203 199 201 203 199 195 199 207 221 229 234 241 264 260 263 266 251 231 249 276 280 291 320
214 222 218 218 220 226 228 230 230 227 217 216 205 213 237 254 260 207 195 194 209 207 209 213 214 204 203 200 199 195 187 193 207 217 227 231 230 232 240 248 249 255 262 256 243 254 261 267 282
209 210 216 223 215 216 215 216 121 240 203 228 236 212 226 233 248 226 200 203 211 214 211 213 216 209 204 200 192 184 193 204 217 232 240 244 248 238 228 251 254 265 267 262 260 253 251 264 271
227 218 215 218 219 224 223 184 184 231 196 197 210 224 224 231 244 245 209 200 214 219 214 215 218 216 204 199 191 197 206 217 231 235 243 263 261 253 231 237 262 266 261 258 261 267 259 253 267
Height
5885 5885 5886 5886 5890 5889 5887 5890 5890 5888 5891 5890 5893 5895 5895 5894 5895 5898 5897 5898 5900 5899 5901 5901 5901 5902 5903 5904 5906 5906 5907 5907 5909 5910 5911 5912 5912 5913 5914 5914 5914 5914 5914 5914 5913 5913 5912 5910 5912
5885 5885 5886 5885 5887 5886 5886 5888 5888 5891 5893 5892 5893 5895 5895 5896 5896 5897 5899 5900 5901 5901 5902 5902 5902 5903 5904 5906 5907 5908 5909 5909 5910 5912 5913 5914 5915 5915 5916 5916 5917 5917 5916 5916 5915 5914 5912 5911 5912
5885 5884 5886 5885 5884 5878 5882 5886 5889 5890 5893 5894 5894 5896 5896 5897 5897 5898 5899 5901 5902 5903 5903 5903 5903 5904 5906 5908 5909 5910 5911 5912 5913 5914 5915 5916 5917 5917 5918 5918 5918 5918 5918 5917 5916 5915 5914 5911 5911
5885 5886 5888 5887 5887 5884 5885 5885 5890 5892 5894 5896 5897 5898 5898 5898 5898 5899 5900 5902 5902 5903 5904 5904 5904 5906 5908 5909 5910 5911 5913 5914 5915 5916 5917 5918 5919 5919 5920 5920 5920 5920 5920 5919 5918 5917 5915 5910 5907
5886 5887 5887 5886 5888 5890 5884 5889 5891 5896 5896 5897 5898 5899 5899 5898 5898 5899 5901 5902 5903 5904 5906 5906 5907 5908 5910 5910 5912 5914 5915 5916 5917 5918 5919 5919 5920 5921 5921 5921 5922 5922 5921 5920 5919 5918 5915 5910 5906
5885 5883 5883 5885 5882 5886 5886 5888 5891 5894 5897 5898 5898 5899 5898 5899 5900 5901 5903 5903 5904 5905 5907 5907 5909 5910 5911 5912 5914 5915 5916 5917 5918 5919 5919 5921 5921 5922 5922 5923 5923 5924 5924 5924 5922 5920 5917 5912 5910
5884 5885 5886 5881 5885 5885 5888 5884 5888 5896 5895 5897 5898 5898 5899 5899 5901 5902 5903 5905 5905 5906 5907 5909 5909 5911 5913 5914 5915 5916 5918 5919 5921 5922 5922 5923 5922 5922 5924 5925 5926 5926 5926 5926 5924 5923 5921 5917 5916
5884 5885 5883 5878 5881 5885 5887 5888 5890 5895 5897 5896 5897 5898 5899 5900 5902 5903 5904 5905 5906 5907 5909 5909 5911 5912 5914 5915 5917 5918 5921 5922 5923 5924 5926 5925 5924 5925 5928 5927 5927 5927 5926 5926 5927 5927 5925 5923 5922
5882 5885 5883 5885 5885 5883 5887 5887 5890 5891 5894 5895 5897 5897 5899 5900 5902 5904 5906 5906 5907 5908 5910 5911 5912 5913 5915 5917 5919 5922 5922 5925 5927 5928 5929 5928 5929 5931 5930 5931 5930 5932 5930 5929 5925 5926 5927 5926 5927
5881 5882 5883 5884 5885 5886 5887 5889 5887 5888 5895 5896 5897 5898 5899 5900 5903 5905 5906 5907 5908 5910 5911 5912 5913 5915 5917 5919 5921 5922 5925 5927 5928 5929 5930 5932 5932 5934 5932 5932 5933 5930 5929 5930 5928 5925 5927 5928 5928
5878 5880 5882 5885 5885 5888 5887 5887 5888 5888 5894 5894 5896 5898 5899 5901 5903 5906 5907 5908 5910 5911 5912 5913 5915 5917 5919 5921 5923 5924 5928 5929 5929 5931 5933 5934 5935 5935 5933 5934 5933 5930 5932 5937 5933 5930 5928 5929 5928
5877 5879 5881 5885 5887 5888 5888 5889 5888 5889 5894 5892 5894 5897 5899 5901 5903 5906 5907 5909 5910 5912 5913 5914 5916 5919 5921 5922 5925 5927 5929 5932 5933 5934 5936 5936 5938 5939 5938 5936 5935 5932 5931 5937 5933 5930 5931 5931 5931
5875 5878 5880 5884 5882 5885 5888 5888 5887 5887 5891 5890 5892 5895 5898 5900 5902 5905 5907 5909 5911 5913 5914 5916 5918 5920 5922 5924 5927 5930 5931 5934 5935 5936 5938 5933 5932 5936 5941 5940 5938 5930 5934 5933 5932 5929 5932 5931 5932
5873 5875 5875 5878 5878 5884 5886 5883 5883 5885 5889 5890 5892 5893 5897 5899 5900 5902 5905 5908 5911 5913 5915 5917 5919 5922 5924 5925 5928 5930 5934 5935 5937 5939 5938 5934 5932 5938 5942 5942 5942 5937 5934 5935 5934 5932 5933 5934 5931
5867 5869 5872 5875 5881 5884 5883 5882 5877 5883 5884 5889 5891 5894 5895 5897 5899 5901 5903 5906 5909 5913 5915 5918 5920 5924 5925 5928 5929 5931 5934 5935 5936 5939 5940 5939 5941 5943 5943 5944 5943 5943 5942 5938 5935 5934 5933 5932 5931
5862 5863 5867 5874 5875 5882 5881 5879 5883 5890 5888 5890 5887 5892 5893 5896 5897 5899 5901 5905 5908 5913 5916 5918 5921 5925 5927 5929 5930 5933 5935 5936 5938 5940 5941 5942 5943 5944 5945 5945 5945 5944 5942 5939 5938 5935 5933 5932 5931
5856 5859 5865 5870 5874 5880 5875 5870 5882 5887 5888 5891 5890 5888 5887 5892 5895 5897 5899 5904 5907 5912 5915 5918 5921 5925 5928 5930 5932 5934 5936 5938 5940 5942 5943 5945 5945 5946 5946 5946 5945 5945 5944 5943 5941 5937 5936 5934 5934
5854 5857 5860 5866 5873 5875 5874 5871 5884 5886 5887 5888 5888 5887 5884 5888 5892 5895 5897 5900 5905 5909 5913 5918 5921 5925 5928 5931 5933 5936 5938 5940 5942 5944 5945 5946 5947 5948 5949 5948 5948 5947 5945 5944 5943 5941 5941 5938 5936
5850 5852 5856 5863 5868 5872 5874 5874 5879 5881 5882 5886 5886 5887 5890 5884 5890 5891 5897 5901 5903 5907 5913 5917 5921 5925 5928 5931 5933 5936 5939 5941 5942 5945 5947 5947 5949 5950 5951 5950 5950 5949 5948 5948 5946 5944 5942 5941 5939
5843 5847 5852 5861 5865 5871 5869 5871 5874 5878 5881 5880 5885 5890 5890 5884 5885 5888 5892 5897 5901 5906 5910 5916 5920 5924 5927 5930 5934 5936 5939 5941 5943 5944 5947 5949 5950 5952 5953 5952 5951 5950 5950 5948 5947 5946 5945 5943 5941
5837 5843 5851 5855 5863 5866 5865 5867 5871 5874 5875 5878 5882 5891 5888 5881 5887 5886 5890 5895 5899 5904 5909 5914 5918 5922 5926 5930 5933 5937 5939 5941 5943 5945 5947 5948 5951 5952 5953 5953 5953 5952 5950 5950 5949 5948 5948 5946 5945
5831 5842 5846 5850 5854 5856 5861 5860 5864 5870 5873 5875 5872 5881 5883 5884 5888 5887 5888 5896 5899 5903 5907 5912 5916 5921 5924 5929 5932 5935 5937 5941 5944 5945 5947 5948 5949 5950 5951 5952 5951 5951 5951 5952 5952 5951 5950 5950 5949
5831 5833 5839 5845 5845 5847 5853 5857 5860 5863 5866 5867 5872 5879 5882 5883 5885 5886 5886 5893 5900 5903 5906 5910 5915 5919 5923 5928 5931 5934 5938 5941 5943 5945 5946 5948 5950 5950 5951 5952 5953 5952 5952 5951 5952 5952 5952 5952 5951
5823 5824 5830 5837 5838 5835 5843 5850 5854 5854 5862 5865 5864 5870 5878 5878 5882 5884 5888 5891 5898 5903 5906 5909 5913 5918 5922 5926 5929 5934 5937 5940 5941 5944 5946 5947 5949 5950 5951 5951 5951 5952 5952 5952 5953 5953 5953 5952 5952
5810 5814 5821 5825 5823 5827 5840 5844 5851 5858 5862 5860 5862 5870 5871 5874 5880 5885 5888 5890 5895 5901 5906 5909 5913 5917 5921 5924 5929 5933 5937 5939 5941 5943 5945 5947 5948 5950 5951 5950 5950 5951 5952 5952 5952 5953 5953 5952 5951
5802 5809 5813 5815 5822 5829 5833 5832 5843 5852 5858 5861 5855 5860 5863 5869 5878 5885 5886 5889 5894 5899 5904 5908 5910 5914 5919 5924 5928 5932 5935 5937 5940 5942 5944 5946 5947 5948 5949 5950 5949 5949 5950 5951 5952 5952 5953 5952 5950
5795 5795 5808 5813 5819 5822 5827 5835 5842 5849 5850 5855 5861 5859 5864 5868 5874 5880 5884 5887 5891 5897 5902 5906 5908 5912 5916 5920 5925 5929 5933 5935 5938 5940 5942 5943 5945 5945 5945 5948 5949 5948 5948 5949 5950 5951 5951 5951 5950
5785 5796 5800 5802 5808 5813 5822 5829 5836 5843 5848 5850 5856 5858 5864 5865 5869 5876 5882 5886 5889 5894 5898 5903 5906 5909 5912 5917 5923 5927 5930 5933 5935 5937 5938 5939 5941 5943 5944 5945 5946 5947 5948 5948 5948 5949 5949 5949 5949
5775 5780 5789 5800 5802 5808 5816 5823 5830 5838 5844 5847 5852 5856 5859 5862 5865 5873 5879 5883 5886 5891 5895 5900 5903 5907 5911 5916 5921 5925 5928 5930 5932 5934 5935 5936 5937 5939 5941 5941 5943 5945 5947 5947 5946 5945 5945 5946 5947
5770 5776 5784 5788 5798 5804 5812 5819 5822 5828 5835 5843 5848 5853 5856 5858 5860 5867 5875 5880 5883 5888 5892 5897 5900 5904 5909 5912 5917 5921 5924 5928 5929 5930 5931 5933 5933 5934 5936 5938 5939 5941 5942 5942 5942 5942 5943 5943 5944